Regional Weather Roundup
Issued by NWS Sioux Falls, SD

Home | Current Version | Previous Version | Text Only | Print | Product List | Glossary On
Versions: 1 2 3 4 5 6 7 8 9 10 11 12 13 14 15 16 17 18 19 20 21 22 23 24 25 26 27 28 29 30 31 32 33 34 35 36 37 38 39 40 41 42 43 44 45 46 47 48 49 50
000
ASUS43 KFSD 011510
RWRFSD

WEATHER ROUNDUP FOR SE SOUTH DAKOTA/SW MINNESOTA/NW IOWA
NATIONAL WEATHER SERVICE SIOUX FALLS SD
1000 AM CDT WED JUL 01 2015

NOTE: "FAIR" INDICATES FEW OR NO CLOUDS BELOW 12,000 FEET WITH NO
SIGNIFICANT WEATHER AND OR OBSTRUCTIONS TO VISIBILITY.


SDZ038>040-050-052>070-011600-
SOUTHEAST SOUTH DAKOTA

CITY           SKY/WX    TMP DP  RH WIND       PRES   REMARKS
BROOKINGS      CLOUDY    63  57  82 E12       29.96R
CHAMBERLAIN    MOSUNNY   73  66  78 SE9       29.89S
HURON          PTSUNNY   70  65  84 VRB6      29.90R HAZE
MADISON        FAIR      64  64 100 SE10G17   29.94R
MITCHELL       CLOUDY    70  66  87 SE9       29.90S FOG
SIOUX FALLS    CLOUDY    65  62  90 SE13      29.93S
WINNER         PTSUNNY   73  62  68 SE3       29.90R
YANKTON        PTSUNNY   70  64  83 SE8       29.89S
$$

MNZ071-072-080-081-089-090-097-098-011600-
SOUTHWEST MINNESOTA

CITY           SKY/WX    TMP DP  RH WIND       PRES   REMARKS
FAIRMONT       CLOUDY    63  54  72 E6        29.98S
JACKSON        CLOUDY    61  57  88 E10       29.98S
LUVERNE        CLOUDY    66  59  77 E9        29.95S
MARSHALL       CLOUDY    61  55  82 SE7         N/A
MONTEVIDEO     CLOUDY    63  55  77 S10       29.99S
PIPESTONE      DRIZZLE   63  59  88 SE8       29.96R
REDWOOD FALLS  CLOUDY    61  56  83 E7        29.98F
TRACY          CLOUDY    61  60  94 SE7       29.98S
WINDOM         DRIZZLE   61  57  88 E6        29.98S
WORTHINGTON    CLOUDY    61  55  82 E8        29.98R
$$

IAZ001>003-012>014-020>022-031-032-NEZ013-014-SDZ071-011600-
NORTHWEST IOWA

CITY           SKY/WX    TMP DP  RH WIND       PRES   REMARKS
CHEROKEE       PTSUNNY   67  64  88 E12       29.92R
DENISON        CLOUDY    66  66 100 SE8G17    29.85F FOG
LE MARS        CLOUDY    68  64  88 NE8       29.95R
ORANGE CITY    PTSUNNY   64  63  94 E8        29.94S
SHELDON        PTSUNNY   64  64 100 E8G15     29.93F FOG
SIOUX CITY     PTSUNNY   70  65  84 E3        29.90R
SPENCER        CLOUDY    67  59  75 E10       29.95S
STORM LAKE     CLOUDY    64  61  88 E12G20    29.91S
$$

ABBREVIATIONS USED IN REMARKS
   TC - TEMPERATURE IN CELSIUS
  WCI - WIND CHILL INDEX
   HX - HEAT INDEX
  VSB - VISIBILITY




USA.gov is the U.S. government's official web portal to all federal, state and local government web resources and services.